STARLINK-3146, 49414

Orbit data source: Space-Track

STARLINK-3146, 49414 is a payload satellite owned by SpaceX/Seattle (US) in LEO that was launched on Sat, 13 Nov 2021 UTC via an FALCON 9 launch vehicle from the Air Force Eastern Test Range (AFETR). Payload-class satellites include a variety of spacecraft equipped with specific instruments for various scientific and technological missions. These include communications satellites like Starlink; space stations such as the ISS; scientific satellites like the Hubble; Earth observation satellites from companies like Planet Labs, Umbra, and HawkEye 360; GPS; miniature CubeSats for education and research; and military/defense satellites.

Loading next visibility...
Identifier
49414, 2021-104G
Orbit
LEO
Country
Flag of USUS
Related business
Manufacturer
SpaceX/Seattle
Mission
Operational Commercial Communications
Bus & Motor
STARLINK, Unknown motor
Mass
290 kg wet, ~270 kg dry
Launch date (UTC)
2021-11-13 (5 years ago)
Launch vehicle
FALCON 9
Launch site
Air Force Eastern Test Range (AFETR)
Object type
Payload
Rocket body
Debris
Shape & HBR
Box + 1 Pan, 10.1 m
Radar Cross Section
13.562 m², Large (>1 m²)

Expand to show TLE details & history
Last TLE update: 1 week ago

TLE from 1 week ago
0 STARLINK-3146
1 49414U 21104G   26154.29778630  .00000022  00000-0  19507-4 0  9990
2 49414  53.1969 204.7939 0002900  13.8509 346.2562 15.08834306251552
Epoch: 2026-06-03T07:08Z
TLE epoch observation values (Epoch: 2026-06-03T07:08:48.736Z)
Latitude
-0.00001°
Longitude
-154.16759°
Altitude
538.707 km
Speed
7.595 km/s
True Right ascension
13h 39m 10s
True Declination
0° 00' 00"
Sunlit
Object was in full shadow at epoch
Visualization orbit readout
Latitude
Unknown
Longitude
Unknown
Altitude
Unknown
Speed
Unknown
Apparent Right ascension
Unknown
Apparent Declination
Unknown
Sunlit
N/A
Visualization observer readout
Local Sidereal Time
13:18:16
Azimuth
Unknown
Elevation
Unknown
Doppler factor
Unknown
Orbital elements
Apogee altitude
542.015 km
Perigee altitude
538.003 km
Semi-major axis
6,918.146 km
Eccentricity
0.00029
Inclination
53.1969°
RAAN
204.7939°
Arg. of periapsis
13.8509°
True anomaly
346.2483°
Mean anomaly
346.2562°
Eccentric anomaly
346.25225°
Mean motion
3.77189 °/min
Orbital period
95.44 mins
BSTAR
0.000019507
Loading maneuver chart data...
Computing Atmospheric mass density...
Loading historical data...
Loading historical data...
Loading historical data...
Loading historical data...
Loading historical data...
Loading historical data...
Loading historical data...

Documentation

Showing up to 5 results
|